When you browse on this site, cookies collect data to enhance your experience and personalize the content and advertising you see.
Visit our Privacy Policy to learn more. By continuing to use the site, you agree to this use of cookies and data.
  • In Hungary
  • List of Countries
  • For 7 days
  • Water Temperature
  • Weather Map
  • News
  • Weather Widgets
  • user-avatar
    Login

    Hourly Weather Murylevo

    Today, 19 January, Sunday

    Time Temperature Precipitation Wind Pressure Humidity
    00:00 -4°C° 0 mm 3 mps 748 mmHg 88%
    01:00 -4°C° 0 mm 3 mps 748 mmHg 89%
    02:00 -4°C° 0 mm 3 mps 748 mmHg 90%
    03:00 -4°C° 0 mm 3 mps 748 mmHg 90%
    04:00 -4°C° 0 mm 3 mps 748 mmHg 91%
    05:00 -4°C° 0 mm 3 mps 748 mmHg 91%
    06:00 -4°C° 0 mm 3 mps 749 mmHg 92%
    07:00 -4°C° 0 mm 3 mps 749 mmHg 92%
    08:00 -3°C° 0 mm 2 mps 749 mmHg 93%
    09:00 -2°C° 0 mm 3 mps 749 mmHg 92%
    10:00 -1°C° 0 mm 3 mps 750 mmHg 90%
    11:00 -1°C° 0 mm 3 mps 750 mmHg 89%
    12:00 0°C° 0 mm 3 mps 750 mmHg 89%
    13:00 -1°C° 0 mm 4 mps 750 mmHg 88%
    14:00 -1°C° 0 mm 4 mps 750 mmHg 87%
    15:00 0°C° 0 mm 3 mps 750 mmHg 88%
    16:00 -1°C° 0 mm 3 mps 751 mmHg 90%
    17:00 -1°C° 0 mm 3 mps 751 mmHg 91%
    18:00 -1°C° 0 mm 3 mps 751 mmHg 91%
    19:00 -2°C° 0 mm 4 mps 751 mmHg 90%
    20:00 -2°C° 0 mm 4 mps 752 mmHg 90%
    21:00 -1°C° 0 mm 4 mps 752 mmHg 89%
    22:00 -1°C° 0 mm 4 mps 752 mmHg 89%
    23:00 -1°C° 0 mm 4 mps 752 mmHg 88%

    Tomorrow, 20 January, Monday

    Time Temperature Precipitation Wind Pressure Humidity
    00:00 -1°C° 0 mm 4 mps 752 mmHg 88%
    01:00 -1°C° 0 mm 4 mps 752 mmHg 88%
    02:00 -1°C° 0 mm 4 mps 752 mmHg 88%
    03:00 -1°C° 0 mm 4 mps 752 mmHg 89%
    04:00 -1°C° 0 mm 5 mps 752 mmHg 90%
    05:00 -1°C° 0 mm 5 mps 751 mmHg 90%
    06:00 -1°C° 0 mm 5 mps 751 mmHg 90%
    07:00 -1°C° 0 mm 4 mps 752 mmHg 89%
    08:00 -1°C° 0 mm 4 mps 752 mmHg 89%
    09:00 -1°C° 0 mm 4 mps 752 mmHg 88%
    10:00 -1°C° 0 mm 5 mps 752 mmHg 88%
    11:00 0°C° 0 mm 5 mps 751 mmHg 87%
    12:00 -1°C° 0 mm 5 mps 752 mmHg 87%
    13:00 -1°C° 0 mm 5 mps 752 mmHg 87%
    14:00 -1°C° 0 mm 5 mps 752 mmHg 87%
    15:00 -1°C° 0 mm 5 mps 751 mmHg 86%
    16:00 -1°C° 0 mm 5 mps 751 mmHg 86%
    17:00 -1°C° 0 mm 5 mps 751 mmHg 85%
    18:00 -1°C° 0 mm 5 mps 751 mmHg 84%
    19:00 -1°C° 0 mm 5 mps 750 mmHg 83%
    20:00 -1°C° 0 mm 5 mps 750 mmHg 81%
    21:00 -2°C° 0 mm 5 mps 749 mmHg 80%
    22:00 -2°C° 0 mm 5 mps 749 mmHg 79%
    23:00 -2°C° 0 mm 5 mps 748 mmHg 78%

    Day after tomorrow, 21 January, Tuesday

    Time Temperature Precipitation Wind Pressure Humidity
    00:00 -2°C° 0 mm 5 mps 748 mmHg 79%
    01:00 -2°C° 0 mm 5 mps 747 mmHg 80%
    02:00 -2°C° 0 mm 5 mps 746 mmHg 81%
    03:00 -3°C° 0 mm 6 mps 745 mmHg 82%
    04:00 -2°C° 0 mm 6 mps 744 mmHg 83%
    05:00 -2°C° 0 mm 6 mps 743 mmHg 84%
    06:00 -2°C° 0.1 mm 7 mps 743 mmHg 86%
    07:00 -2°C° 0.1 mm 7 mps 742 mmHg 88%
    08:00 -1°C° 0.1 mm 7 mps 742 mmHg 90%
    09:00 -1°C° 0 mm 7 mps 741 mmHg 90%
    10:00 0°C° 0 mm 7 mps 741 mmHg 89%
    11:00 +2°C° 0 mm 6 mps 740 mmHg 89%
    12:00 +2°C° 0 mm 6 mps 740 mmHg 89%
    13:00 +2°C° 0 mm 6 mps 739 mmHg 89%
    14:00 +2°C° 0 mm 6 mps 739 mmHg 89%
    15:00 +2°C° 0 mm 6 mps 738 mmHg 90%
    16:00 +2°C° 0 mm 6 mps 737 mmHg 91%
    17:00 +2°C° 0 mm 5 mps 737 mmHg 91%
    18:00 +3°C° 0.2 mm 6 mps 736 mmHg 90%
    19:00 +3°C° 0.2 mm 6 mps 736 mmHg 89%
    20:00 +3°C° 0.2 mm 7 mps 735 mmHg 87%
    21:00 +3°C° 0.3 mm 7 mps 735 mmHg 86%
    22:00 +2°C° 0.3 mm 7 mps 735 mmHg 85%
    23:00 +2°C° 0.3 mm 7 mps 734 mmHg 84%

    22 January, Wednesday

    Time Temperature Precipitation Wind Pressure Humidity
    00:00 +1°C° 0 mm 6 mps 735 mmHg 82%
    01:00 -1°C° 0 mm 5 mps 735 mmHg 79%
    02:00 -2°C° 0 mm 4 mps 735 mmHg 76%
    03:00 -2°C° 0.2 mm 5 mps 735 mmHg 76%
    04:00 -2°C° 0.2 mm 5 mps 735 mmHg 75%
    05:00 -2°C° 0.2 mm 5 mps 735 mmHg 75%
    06:00 -2°C° 0 mm 5 mps 735 mmHg 78%
    07:00 -4°C° 0 mm 5 mps 735 mmHg 80%
    08:00 -4°C° 0 mm 5 mps 735 mmHg 83%
    09:00 -4°C° 0.1 mm 5 mps 735 mmHg 83%
    10:00 -4°C° 0.1 mm 5 mps 734 mmHg 83%
    11:00 -3°C° 0.1 mm 6 mps 734 mmHg 83%
    12:00 -2°C° 0.2 mm 5 mps 734 mmHg 79%
    13:00 -2°C° 0.2 mm 5 mps 734 mmHg 75%
    14:00 -2°C° 0.2 mm 5 mps 733 mmHg 71%
    15:00 -4°C° 0 mm 5 mps 733 mmHg 74%
    16:00 -3°C° 0 mm 4 mps 733 mmHg 76%
    17:00 -4°C° 0 mm 4 mps 733 mmHg 78%
    18:00 -4°C° 0 mm 4 mps 734 mmHg 81%
    19:00 -4°C° 0 mm 4 mps 734 mmHg 84%
    20:00 -4°C° 0 mm 4 mps 734 mmHg 87%
    21:00 -4°C° 0 mm 4 mps 735 mmHg 86%
    22:00 -4°C° 0 mm 4 mps 735 mmHg 85%
    23:00 -4°C° 0 mm 4 mps 736 mmHg 84%

    23 January, Thursday

    Time Temperature Precipitation Wind Pressure Humidity
    00:00 -5°C° 0 mm 4 mps 736 mmHg 79%
    01:00 -6°C° 0 mm 5 mps 737 mmHg 75%
    02:00 -6°C° 0 mm 6 mps 738 mmHg 70%
    03:00 -8°C° 0 mm 6 mps 738 mmHg 68%
    04:00 -8°C° 0 mm 6 mps 739 mmHg 67%
    05:00 -9°C° 0 mm 6 mps 740 mmHg 65%
    06:00 -8°C° 0 mm 5 mps 740 mmHg 65%
    07:00 -8°C° 0 mm 5 mps 741 mmHg 65%
    08:00 -8°C° 0 mm 5 mps 741 mmHg 65%
    09:00 -7°C° 0 mm 5 mps 742 mmHg 62%
    10:00 -8°C° 0 mm 6 mps 742 mmHg 59%
    11:00 -7°C° 0 mm 7 mps 742 mmHg 57%
    12:00 -7°C° 0 mm 7 mps 742 mmHg 57%
    13:00 -7°C° 0 mm 7 mps 742 mmHg 57%
    14:00 -7°C° 0 mm 7 mps 743 mmHg 58%
    15:00 -6°C° 0 mm 6 mps 743 mmHg 58%
    16:00 -6°C° 0 mm 5 mps 744 mmHg 58%
    17:00 -7°C° 0 mm 5 mps 744 mmHg 58%
    18:00 -7°C° 0 mm 4 mps 745 mmHg 58%
    19:00 -8°C° 0 mm 4 mps 745 mmHg 58%
    20:00 -7°C° 0 mm 3 mps 746 mmHg 59%
    21:00 -7°C° 0 mm 3 mps 746 mmHg 60%
    22:00 -8°C° 0 mm 3 mps 747 mmHg 61%
    23:00 -7°C° 0 mm 2 mps 747 mmHg 62%

    24 January, Friday

    Time Temperature Precipitation Wind Pressure Humidity
    00:00 -8°C° 0 mm 3 mps 747 mmHg 65%
    01:00 -7°C° 0 mm 3 mps 746 mmHg 68%
    02:00 -7°C° 0 mm 3 mps 746 mmHg 70%
    03:00 -6°C° 0.1 mm 3 mps 746 mmHg 78%
    04:00 -6°C° 0.1 mm 3 mps 745 mmHg 86%
    05:00 -5°C° 0.1 mm 4 mps 745 mmHg 94%
    06:00 -5°C° 0.3 mm 4 mps 744 mmHg 93%
    07:00 -5°C° 0.3 mm 4 mps 744 mmHg 93%
    08:00 -4°C° 0.3 mm 4 mps 744 mmHg 93%
    09:00 -5°C° 0.1 mm 5 mps 744 mmHg 92%
    10:00 -4°C° 0.1 mm 5 mps 743 mmHg 91%
    11:00 -4°C° 0.1 mm 5 mps 743 mmHg 90%
    12:00 -4°C° 0 mm 5 mps 743 mmHg 90%
    13:00 -2°C° 0 mm 5 mps 743 mmHg 90%
    14:00 -2°C° 0 mm 5 mps 743 mmHg 90%
    15:00 -1°C° 0 mm 5 mps 743 mmHg 90%
    16:00 -1°C° 0 mm 5 mps 743 mmHg 90%
    17:00 -1°C° 0 mm 4 mps 743 mmHg 91%
    18:00 0°C° 0 mm 4 mps 743 mmHg 91%
    19:00 0°C° 0 mm 4 mps 743 mmHg 91%
    20:00 0°C° 0 mm 4 mps 743 mmHg 92%
    21:00 0°C° 0 mm 4 mps 744 mmHg 92%
    22:00 0°C° 0 mm 4 mps 744 mmHg 92%
    23:00 0°C° 0 mm 4 mps 744 mmHg 92%
    Show more